Find OneWeb SL0380

NORAD ID: 49306 Int'l Des: 2021-090 Owner: ONEWEBN Country: UK Constellation: oneweb operational
LEOCIRCULARPOLARONEWEB_TYPE

Live Position

Loading 3D Globe...

About OneWeb SL0380

Description loading...

Upcoming Passes

Passes for default location (London). Set your location on the main map for personalized predictions.

Altitude History

Loading altitude history...

Two-Line Element Set

1 49306U 21090AD 26106.09115526 -.00000223 00000-0 -58978-3 0 9997
2 49306 87.9162 317.3562 0001547 89.5283 270.6027 13.19725016218231
Epoch: Apr 16, 2026 • Age: 10 hours

Current Status

Altitude 1188.8 km
Velocity 7.26 km/s
Sub-Earth Point 28.36°N, 110.73°E
Launch Date Oct 14, 2021
Age 4.5 years
Type internet

Technical Details

Classification Payload
Mass 148.00 kg
Dry Mass 140.00 kg
Total Mass 148.00 kg
Length 1.30 m
Diameter 1.00 m
Span 5.00 m
Shape Trapezoid+2 pan
Manufacturer ONEWUS
Bus Type ARROW
Phase Status In Orbit
Owner/State ONEWEBN/UK

Most Searched